Погода в Павилосте

Погода в Павилосте : погода сейчас, прогноз погоды и архив. Всё, что Вы хотите узнать о погоде в Павилосте!

Поиск расширенной информации на нашем сайте:

Другие новости

Новости СМИ2

Главная страница сайта

Новости сайта

03.07.2017

Напоминаем, что на нашем специализированном сайте Метеоцентр.Азия вы можете получить высокодетализированные автоматические прогнозы погоды по пунктам России, СНГ и мира в авиационном формате (включающие направление и скорость ветра, видимость, явления погоды, количество и форму облачности, нижнюю и верхнюю границу облачности).


Погода в Павилосте - сегодня

Время (UTC), дата Ветер
(°,м/с) 
Видим.   Явления Облачность Т
(°С)
Тd
(°С)
f(%) Тe
(°С)
Pmin
(гПа)
dP
(гПа)
Po
(мм)
O2
(г/м3)
Тmin Tmax R s Состояние
почвы
03 17.10.17 160 (Ю) 2-3  н/о    н/о 
+7.9 +7.9 100 +8  1017.7  -0.3  763  297           
06 17.10.17 150 (ЮВ) 2-2  н/о    н/о 
+10.4 +10.4 100 +12  1017.7  763  294           
09 17.10.17 190 (Ю) 4-7  н/о    н/о 
+13.1 +12.3 95 +17  1016.8  -0.9  762  291           
12 17.10.17 190 (Ю) 5-10  н/о    н/о 
+15.1 +12.2 83 +19  1013.4  -3.3  759  288           
15 17.10.17 220 (ЮЗ) 6-10  н/о    н/о 
+13.7 +12.4 92 +17  1012  -1.4  758  289           
18 17.10.17 250 (З) 5-9  н/о    н/о 
+12.5 +11.3 92 +15  1011.2  -0.8  758  290           
21 17.10.17 260 (З) 6-10  н/о    н/о 
+12.4 +9.8 84 +12  1011  -0.2  758  290           
00 18.10.17 260 (З) 7-12  н/о    н/о 
+12.2 +9.8 85 +12  1009.8  -1.1  757  290           
03 18.10.17 260 (З) 7-12  н/о    н/о 
+11.9 +9.5 85 +10  1008.7  -1.2  756  290           
06 18.10.17 270 (З) 7-15  н/о    н/о 
+12.1 +9.7 85 +12  1009.1  0.4  756  290           
09 18.10.17 280 (З) 6-12  н/о    н/о 
+12.4 +10.2 86 +12  1010.2  1.1  757  290           
12 18.10.17 340 (С) 3-6  н/о    н/о 
+11.6 +10 90 +12  1012  1.8  758  291           
15 18.10.17 340 (С) 3-6  н/о    н/о 
+10.7 +6 73 +10  1013.7  1.8  760  294           
18 18.10.17 340 (С) 2-3  н/о    н/о 
+8.7 +5.3 79 +9  1015.5  1.7  761  296           
21 18.10.17 330 (СЗ) 3-5  н/о    н/о 
+9.7 +5.7 76 +9  1016.7  1.3  762  296           
00 19.10.17 340 (С) 1-4  н/о    н/о 
+7.3 +4.7 84 +8  1017.5  0.8  762  298           
03 19.10.17 150 (ЮВ) 2-3  н/о    н/о 
+1.3 +1 98 +1  1018.2  0.6  763  306           
06 19.10.17 150 (ЮВ) 2-3  н/о    н/о 
+0.7 +0.4 98 1019.3  1.2  764  307           
09 19.10.17 320 (СЗ) 2-3  н/о    н/о 
+11.5 +5.5 67 +12  1020.7  1.4  765  295           
12 19.10.17 350 (С) 2-4  н/о    н/о 
+12.2 +4.4 59 +13  1021.1  0.3  765  294           
15 19.10.17 000 (С) 1-2  н/о    н/о 
+8.8 +5.2 78 +10  1021.1  765  298           
18 19.10.17 140 (ЮВ) 2-2  н/о    н/о 
+2.8 +2.5 98 +2  1021.8  0.7  766  305           
21 19.10.17 120 (ЮВ) 2-2  н/о    н/о 
+0.9 +0.7 99 1022.5  0.7  766  308           
00 20.10.17 140 (ЮВ) 3-3  н/о    н/о 
-0.3 -0.6 98 -2  1022.8  0.3  766  309           
03 20.10.17 120 (ЮВ) 3-4  н/о    н/о 
-0.6 -0.8 99 -2  1022.3  -0.5  766  309           
Время (UTC), дата Ветер
(°,м/с) 
Видим.   Явления Облачность Т
(°С)
Тd
(°С)
f(%) Тe
(°С)
Pmin
(гПа)
dP
(гПа)
Po
(мм)
O2
(г/м3)
Тmin Tmax R s Состояние
почвы

Для получения пояснительной информации подведите курсор к названию столбца.

ПОГОДА в Павилосте - архив

Всё, что Вы хотите узнать о погоде в Павилосте - удобно и подробно!

Выберите нужную дату (начиная с 1 января 2015* года) и нажмите кнопку "Найти".
Будут отображены архивные сводки погоды по пункту Павилоста, начиная с указанной даты.


Отображать данные в формате CSV (для использования в таблицах Excel)


Внимание! Наш архив погоды предназначен исключительно для личного некоммерческого использования в познавательных целях. Если Вам необходимы официальные справки о состоянии погоды (для производственных, юридических, коммерческих и т.п. целей), обращайтесь в органы Росгидромета.

*Примечание: данная дата относится к архиву по метеостанциям СССР (Россия, СНГ, Балтия).
Архив по метеостанциям Зарубежной Европы и Азии (кроме Китая) хранится 10 дней, по другим регионам земного шара (Китай, Африка, Америка, Австралия, Океания) - 1 день.

Павилоста - район местоположения метеостанции


Название, широта, долгота, высота метеостанции:
Павилоста 56.9°ш. 21.2°д. 10 м над ур. моря [Латвия]

Дополнительная информация

В oтличие oт бoльшинства пoгoдных сайтoв мы публикуем пoдрoбную метеoинфoрмацию в детальнoм прoфессиoнальнoм фoрмате.

Характеристики температуры и влажнoсти вoздуха измеряются на высoте 2 м в тени вдали oт зданий и деревьев.
Скoрoсть ветра измеряется на высoте 10 м (на урoвне рoста челoвека скoрoсть ветра ниже в 1.5-2 раза). Если метеoстанция нахoдится в гoрoде или в лесу, тo скoрoсть ветра занижена на 2-4 м/с пo сравнению с oткрытым местoм. Скoрoсть ветра над акватoриями крупных рек и oзёр, а также на вершинах хoлмoв на 2-5 м/с выше, чем в oбычных услoвиях.
Атмoсфернoе давление в разных тoчках местнoсти мoжет значительнo oтличаться oт давления на метеoстанции, в зависимoсти oт услoвий рельефа (при пoдъёме на 10 м давление пoнижается примернo на 1 мм рт.ст.).